Location: Huberhof
(49.2050°N, 7.4980°E)
Time: 04:31:33
(UTC+00:00)

NOSS 3-4 (C) - Pass Details

Date: 29 October 2020
Orbit: 886 x 1326 km, 63.4° (Epoch: 06 November)

Event Time Altitude Azimuth Distance (km) Brightness Sun altitude
Rises 17:52:24 0° 316° (NW) 3,751 7.2 -16.7°
Reaches altitude 10° 17:54:58 10° 321° (NW) 2,856 6.4 -17.1°
Maximum altitude 18:01:39 56° 40° (NE) 1,318 3.9 -18.2°
Enters shadow 18:05:43 27° 107° (ESE) 2,074 4.6 -18.9°
